STARLINK-33819 (63494 NORAD) Tracking and Keplerian Element Data

This shows tracking and keplerian element data for the satellite.

Feedback or suggestion? Click here.




ElementValue
Catalog63494
NameSTARLINK-33819
Epoch Orbit4047
Epoch Day353.70876059
Epoch Year2025
RAAN153.6183
Inclination53.1583
Eccentricity0.0002448
Argument of Perigee92.051
Mean Anonmoly268.0771
Mean Motion15.30207112
Decay Rate0.00015575
L11 63494U 25071B 25353.70876059 .00015575 00000+0 53675-3 0 9992
L22 63494 53.1583 153.6183 0002448 92.0510 268.0771 15.30207112 40473



Live tracking and technical data element details for STARLINK-33819 (NORAD 63494). STARLINK-33819 can be tracked NOW for your location showing map with azimuth and elevation plus other details from your city location.







IsCatalogInMostPopularTable: catalog: 63494, numindb: 7
Update: records affected: 1



GetName: 63494 STARLINK-33819

Hit Count: updated at: Tue, 21 Apr 2026 21:42:50 GMT